Regional Weather Roundup
Issued by NWS

Home | Current Version | Previous Version | Graphics & Text | Print | Product List | Glossary On
Versions: 1 2 3 4 5 6 7 8 9 10 11 12 13 14 15 16 17 18 19 20 21 22 23 24 25 26 27 28 29 30 31 32 33 34 35 36 37 38 39 40 41 42 43 44 45 46 47 48 49 50
211
ASUS44 KMEG 180500
RWRTN
TENNESSEE HOURLY STATE WEATHER ROUNDUP
NATIONAL WEATHER SERVICE MEMPHIS TN
1100 PM CST TUE JAN 17 2017

TNZ002-004-019-021-049-052-054-088>092-180600-
WEST TENNESSEE

CITY           SKY/WX    TMP DP  RH WIND       PRES   REMARKS
MEMPHIS INTL   CLOUDY    48  43  82 N5        30.18R
NWS MEMPHIS      N/A     47 N/A N/A MISG        N/A
JACKSON        CLOUDY    47  43  86 N6        30.19S
DYERSBURG      CLOUDY    43  37  81 CALM      30.18F
UNION CITY     CLOUDY    45  45 100 NW6       30.17S
PARIS          CLOUDY    41  37  87 CALM      30.17S
$$

TNZ008-025-027-028-033-062-065-066-180600-
NORTH MIDDLE TENNESSEE

CITY           SKY/WX    TMP DP  RH WIND       PRES   REMARKS
NASHVILLE      CLOUDY    52  44  74 W7        30.15F
CLARKSVILLE    CLOUDY    46  39  76 NW12      30.17S
SMYRNA         CLOUDY    50  46  86 W3        30.16F
CROSSVILLE     CLOUDY    52  50  93 W14       30.12R
$$

TNZ061-075-076-078-094-096-097-180600-
SOUTH MIDDLE TENNESSEE

CITY           SKY/WX    TMP DP  RH WIND       PRES   REMARKS
TULLAHOMA      CLOUDY    55  52  88 W6        30.14S
WINCHESTER     CLOUDY    57  55  94 NW10      30.14S
COLUMBIA       MOCLDY    52  52 100 NW5       30.14F
SHELBYVILLE    CLOUDY    55  54  94 NW7       30.15S
$$

TNZ017-018-042-046-047-180600-
NORTHEAST TENNESSEE

CITY           SKY/WX    TMP DP  RH WIND       PRES   REMARKS
TRI CITIES     LGT RAIN  62  58  86 SW15G25   30.01F
$$

TNZ012-013-036-069-073-074-180600-
CENTRAL EAST TENNESSEE

CITY           SKY/WX    TMP DP  RH WIND       PRES   REMARKS
KNOXVILLE      CLOUDY    64  58  80 SW20G28   30.04F
OAK RIDGE      CLOUDY    60  56  86 W8        30.08R
GATLINBURG     CLOUDY    66  55  68 W9        30.03S
$$

TNZ083-085-099-180600-
SOUTHEAST TENNESSEE

CITY           SKY/WX    TMP DP  RH WIND       PRES   REMARKS
CHATTANOOGA    CLOUDY    67  58  72 SW12      30.10F
$$

SKY/WX REPORTED AS FAIR MEANS FEW OR NO CLOUDS BELOW
12 THOUSAND FEET.





USA.gov is the U.S. government's official web portal to all federal, state and local government web resources and services.